Wind_Speed
13 17 19 21 20 19 20 20 21 20 20 20 19 19 19 17 17 16 15 15 16 16 15 14 13 13 12 12 12 13 13 12 12 12 12 12 11 11 11 10 9 7 7 7 6 6 5 6 5 4 4 3 2 2 2 2 2 2 2 4 5 5 5 6 7 7 8 8 6 7 7 6 7 7 7 8 8 8 9 9 9 9 8 9 10
10 13 17 19 19 19 19 20 21 22 22 22 21 21 20 19 18 17 17 17 16 15 14 14 14 13 13 13 14 14 14 13 13 13 12 12 12 12 12 11 9 8 7 7 7 6 5 5 4 4 3 3 2 1 1 2 1 1 2 3 4 5 5 6 7 6 6 8 6 7 7 6 4 4 7 8 8 8 7 8 8 7 7 8 10
7 10 14 18 19 19 20 20 22 23 23 24 23 22 21 20 19 18 18 17 17 15 14 13 13 13 12 11 14 15 15 14 13 12 11 11 12 12 12 11 10 8 7 7 7 6 5 4 4 4 3 3 2 1 1 1 1 1 1 3 3 4 5 6 7 5 6 7 6 4 4 5 4 6 11 9 5 6 6 7 7 7 7 8 9
8 9 12 17 18 19 20 21 22 22 22 23 24 24 23 22 20 19 19 18 17 15 13 12 12 13 11 10 13 14 14 15 13 13 12 11 12 12 12 11 11 9 8 7 7 6 6 4 3 3 3 3 3 2 1 1 1 1 1 3 4 5 6 6 6 5 6 6 4 1 1 2 1 6 12 9 6 4 5 6 7 7 7 7 8
10 10 11 15 17 20 22 22 22 22 23 24 25 25 25 23 21 20 20 19 18 15 13 13 13 14 11 10 13 11 12 14 14 14 14 13 12 12 12 11 11 11 9 8 7 6 6 5 3 3 3 3 3 2 2 2 2 2 1 3 5 6 6 7 6 5 5 4 3 1 1 1 0 5 9 7 9 7 3 4 5 6 6 6 7
10 11 12 15 18 20 21 21 22 23 25 26 27 27 25 24 22 21 21 20 18 15 14 14 14 15 12 13 16 14 13 14 15 15 15 13 12 11 10 10 10 10 10 8 7 6 5 5 4 4 4 4 4 3 2 3 3 2 0 3 4 5 6 7 6 5 4 4 4 3 2 2 4 6 4 3 8 9 7 7 5 5 5 5 6
9 11 13 16 18 19 20 22 24 25 26 26 26 27 26 25 23 23 22 21 19 16 15 16 15 15 13 13 15 15 14 15 14 13 12 11 10 9 8 9 9 9 9 8 6 5 5 5 4 5 5 5 5 3 3 4 4 3 0 2 3 4 6 7 6 5 4 5 6 4 4 3 4 3 1 1 4 6 9 12 11 8 6 5 5
9 10 12 15 19 21 22 24 27 27 25 25 27 28 27 26 25 24 23 21 20 17 16 17 17 15 13 12 12 13 13 13 13 11 10 9 8 8 8 8 8 8 8 7 6 5 5 5 5 6 6 6 6 4 3 4 5 3 1 1 2 3 4 6 6 6 6 7 7 7 6 4 2 2 3 3 1 1 6 9 12 11 7 5 5
11 11 13 16 21 24 26 27 27 26 25 27 28 29 28 28 27 26 24 22 20 17 17 18 17 16 14 13 12 13 13 12 12 11 10 9 8 7 7 7 7 7 7 6 5 5 5 5 6 6 6 6 7 6 5 5 6 4 2 1 1 1 3 4 4 5 7 8 8 8 8 7 6 4 6 6 0 1 3 4 9 12 9 6 5
11 12 16 21 24 27 28 27 26 25 26 27 27 28 28 27 28 27 25 23 21 19 19 19 18 16 14 14 13 13 13 12 12 11 10 10 9 8 7 7 7 7 7 6 5 5 5 6 6 6 6 6 7 7 6 6 6 5 4 3 2 1 1 2 3 4 6 7 8 9 9 8 7 5 8 8 2 1 1 3 7 8 7 8 7
9 10 16 22 25 26 25 25 25 24 24 24 25 26 27 27 28 28 26 24 23 21 21 20 19 17 15 14 13 14 14 13 13 12 12 11 10 10 9 8 8 8 8 6 6 5 5 5 6 6 6 7 8 7 6 6 6 6 5 4 3 2 1 2 2 3 4 5 6 8 9 9 8 7 9 10 6 2 2 4 6 6 6 8 8
9 8 11 15 17 18 20 22 22 22 22 23 25 26 27 27 28 28 27 26 25 23 22 22 21 19 17 14 13 14 15 15 14 13 13 12 11 11 11 10 9 9 9 8 7 6 5 6 6 6 7 7 7 7 7 6 6 6 6 5 5 4 2 3 4 3 3 3 4 6 7 7 8 8 9 11 9 4 2 4 6 6 5 7 10
9 8 8 10 13 17 20 21 21 23 24 26 26 26 27 28 28 29 28 28 27 25 24 23 22 21 19 16 14 14 16 16 15 14 13 13 12 12 12 12 11 12 12 10 8 7 6 6 7 7 7 8 8 8 7 7 6 7 7 6 6 5 5 5 5 5 4 3 2 3 4 5 6 7 9 10 10 7 4 4 5 5 4 6 9
7 8 8 9 14 19 21 23 24 26 27 27 27 26 27 27 28 29 29 28 28 26 26 25 24 22 21 18 15 14 16 17 17 16 15 14 13 12 12 11 11 12 13 11 9 8 7 6 7 8 8 8 8 8 8 7 7 7 8 8 7 6 6 6 6 6 5 5 3 1 2 3 4 6 7 7 9 8 6 4 5 6 4 5 7
6 7 8 10 16 20 22 24 26 27 27 27 27 27 26 27 29 29 29 28 28 26 25 25 25 24 22 20 16 14 15 17 18 17 15 15 14 13 12 11 11 10 11 11 9 8 8 7 8 9 8 8 9 9 9 8 8 8 9 9 8 7 7 6 6 6 6 5 5 4 2 2 3 4 5 5 6 6 6 5 6 5 3 4 5
6 8 8 11 16 19 20 23 24 25 26 26 27 27 28 28 28 29 29 29 28 26 25 24 24 24 23 20 18 15 15 17 18 17 15 14 13 13 13 12 11 10 10 10 10 9 8 8 9 9 9 9 9 9 9 9 9 9 9 9 8 7 7 7 6 6 5 5 5 5 4 3 2 3 4 4 4 5 5 5 6 5 3 3 3
5 7 8 12 16 19 20 22 22 22 24 25 27 29 30 29 29 29 29 28 28 27 25 23 24 25 24 21 18 17 16 16 17 16 14 13 13 13 13 13 13 12 11 10 10 10 9 9 9 9 9 10 10 10 10 10 10 10 10 10 9 9 9 8 7 6 5 5 5 5 6 5 3 2 3 3 3 3 5 5 5 4 2 2 1
4 4 6 11 17 20 21 22 23 24 25 27 28 29 29 29 29 29 29 29 29 28 26 24 24 25 25 23 20 19 17 16 15 15 13 13 13 13 13 14 14 13 12 11 11 11 11 11 10 10 10 10 10 11 11 11 11 11 11 11 10 9 9 9 8 8 7 6 6 6 6 6 5 3 2 2 2 3 4 5 4 3 3 2 2
4 4 4 8 14 19 22 23 23 25 25 26 27 26 26 27 28 28 28 29 28 27 26 25 24 25 26 24 22 20 19 17 16 16 15 14 14 14 13 13 12 13 13 13 12 12 12 12 11 11 12 12 12 11 11 12 12 13 13 12 11 10 11 11 10 9 9 8 8 7 7 7 6 5 4 3 2 3 4 5 5 4 4 3 4
3 4 3 3 7 15 21 23 24 25 25 25 25 24 25 26 26 25 25 26 27 27 27 26 25 25 25 25 24 22 21 20 18 18 17 16 15 15 15 14 12 12 13 13 13 13 13 13 12 12 12 13 13 12 12 12 13 14 14 13 12 12 13 13 12 12 10 9 10 9 7 7 6 6 5 5 4 4 5 6 6 6 5 4 4
3 2 2 3 1 5 12 18 22 24 25 24 25 25 25 25 25 24 24 25 26 27 27 27 26 25 26 26 26 25 23 22 21 21 20 18 16 16 16 15 14 13 13 13 13 13 13 13 13 13 13 14 14 14 14 14 14 15 15 14 14 14 15 14 14 13 12 11 11 11 9 7 7 7 7 6 6 6 6 7 8 8 7 6 5
5 4 4 5 5 4 5 11 17 21 22 23 24 24 24 24 24 23 23 24 24 25 27 27 27 27 27 27 26 26 25 24 24 24 23 21 18 16 16 16 17 16 14 14 14 13 13 13 14 14 14 14 15 15 15 16 16 16 16 15 15 15 16 15 14 14 13 12 13 12 11 8 8 9 9 8 7 7 7 8 8 8 9 8 7
8 8 7 7 6 6 6 9 13 16 19 20 22 23 23 22 21 21 22 22 22 23 24 25 26 27 27 27 26 25 24 24 24 24 25 23 20 17 15 16 17 17 16 15 15 14 14 14 14 14 15 16 16 16 16 16 17 17 17 16 16 15 16 15 15 15 14 13 13 13 12 10 9 10 11 10 10 9 10 10 10 9 9 9 8
8 8 9 10 11 10 8 9 11 12 14 17 19 21 22 22 22 23 23 22 22 22 23 23 25 26 26 26 26 25 25 24 24 24 26 25 23 19 17 16 16 17 17 16 16 15 15 15 15 15 16 16 16 16 15 16 17 17 17 17 16 16 16 16 16 15 15 14 15 15 14 12 10 11 12 11 11 12 12 13 13 11 10 10 9
7 7 8 10 11 11 10 9 10 12 14 16 18 20 21 23 25 26 24 22 21 22 23 24 25 25 26 26 27 26 25 24 24 24 25 26 25 22 20 18 17 17 17 17 16 17 17 17 17 17 17 17 17 17 17 17 17 18 18 18 18 18 18 17 17 17 16 16 15 16 15 14 13 14 13 13 12 13 13 14 15 14 13 11 11
7 7 6 7 8 10 10 8 8 9 11 14 17 18 20 23 24 22 19 18 18 20 21 23 24 24 25 26 26 26 26 25 24 23 23 24 24 24 23 22 20 19 19 19 18 19 19 19 19 18 18 18 18 18 19 19 19 20 20 20 20 20 19 19 19 19 18 17 17 17 16 15 15 16 16 15 14 14 14 14 14 15 14 13 13
6 6 6 6 7 9 11 11 11 10 10 12 14 14 16 18 17 15 14 15 17 18 18 18 20 22 23 24 24 24 24 23 21 20 20 20 21 22 23 23 22 21 20 20 20 20 21 21 20 20 20 20 20 20 21 21 22 22 22 23 22 22 21 21 20 20 19 19 19 19 18 17 17 17 17 17 16 16 15 15 15 15 15 15 16
5 4 5 6 7 9 12 13 14 14 12 10 10 10 10 10 8 8 10 13 14 14 13 11 12 14 17 19 19 18 17 17 17 15 14 15 17 19 21 22 22 21 20 19 18 19 20 21 21 22 22 22 22 22 22 23 23 24 24 24 24 24 23 22 21 21 20 20 20 20 20 20 19 18 18 17 17 17 17 18 17 17 17 18 19
5 5 5 7 7 8 11 13 15 14 11 9 9 8 8 7 6 3 5 9 11 11 9 9 9 11 12 12 12 14 15 16 18 18 16 14 14 16 18 19 19 20 20 19 17 17 18 20 22 22 23 23 24 25 25 24 24 24 25 25 25 25 25 24 23 23 22 22 21 21 21 21 21 20 20 19 18 18 18 19 19 19 19 20 21
6 6 6 7 8 10 12 14 15 14 11 11 11 10 11 11 9 6 2 6 9 6 4 7 10 14 15 12 9 10 14 17 19 21 21 19 16 14 16 17 17 18 18 18 18 17 18 20 22 23 24 24 25 27 27 27 26 26 26 26 27 27 27 27 26 26 25 25 24 23 23 22 22 22 22 22 21 20 19 20 20 19 20 21 21
6 7 7 6 8 11 13 14 15 15 15 15 15 15 15 14 13 12 9 6 6 7 10 10 6 9 13 13 9 9 12 14 16 18 18 18 15 15 17 18 16 15 15 15 15 15 16 17 19 21 24 25 26 27 28 29 29 28 28 28 29 29 29 29 29 29 29 28 27 26 26 25 24 24 24 23 23 22 21 21 21 20 20 21 22
5 7 9 8 8 11 13 15 16 18 19 19 19 19 18 17 17 16 14 12 14 16 19 18 13 8 3 3 4 6 7 7 9 11 11 10 10 14 20 21 18 16 15 14 13 12 12 13 14 16 19 22 26 28 28 29 30 30 30 29 30 30 31 31 31 31 31 30 30 29 28 27 27 26 25 25 24 24 23 23 23 22 22 22 23
4 5 8 10 10 12 15 16 17 19 21 20 22 22 21 20 20 19 17 17 17 17 18 19 17 17 16 13 11 10 9 7 5 4 5 5 5 8 14 17 16 17 18 17 16 14 11 10 10 11 13 15 20 25 28 30 30 30 29 29 30 31 31 31 31 31 31 31 30 30 29 29 29 28 27 26 25 25 24 24 23 23 23 24 24
5 5 7 11 13 15 18 19 19 21 22 22 24 25 24 23 24 23 23 22 21 21 20 21 19 18 18 18 17 17 16 13 12 10 7 5 3 4 7 8 9 10 12 15 17 16 14 13 12 12 13 14 14 17 21 25 27 28 27 27 28 29 30 31 31 31 31 31 31 30 30 30 30 29 28 27 26 25 25 24 24 24 25 25 24
7 6 8 12 15 17 20 21 21 22 24 24 24 25 26 26 25 25 24 24 24 24 24 24 22 20 19 18 17 17 16 15 14 14 13 10 7 3 2 3 4 4 5 7 9 11 14 15 15 15 16 17 17 15 16 18 20 21 21 21 22 24 26 28 29 30 30 30 30 30 30 30 30 30 29 28 26 25 24 24 25 25 26 27 27
10 10 12 14 17 19 21 21 21 22 23 23 23 23 25 25 24 24 24 23 24 25 24 24 23 22 22 21 20 18 17 15 12 11 11 10 9 7 6 4 2 0 2 3 4 5 8 10 11 11 12 14 15 15 15 18 18 17 17 17 17 17 18 20 22 23 24 26 26 27 28 28 29 29 29 27 25 24 23 24 26 27 28 28 29
13 15 17 18 20 21 22 21 21 21 20 20 20 21 22 23 23 22 22 22 23 23 22 22 22 22 21 21 20 20 20 18 14 11 10 9 8 9 8 8 7 6 3 2 2 3 5 6 5 5 6 7 6 4 8 15 17 16 16 16 16 16 16 16 16 16 17 17 18 19 21 23 25 25 25 25 24 23 23 24 25 26 27 28 29
16 18 19 20 21 22 22 22 22 21 20 19 19 19 21 22 21 21 21 21 21 21 20 20 20 20 20 20 19 18 18 18 16 15 13 10 9 11 11 10 10 11 10 9 8 8 8 9 11 10 6 5 8 6 1 7 10 11 12 12 14 14 14 15 15 14 13 13 13 13 14 15 18 19 18 18 18 19 20 21 23 24 26 28 29
18 20 21 21 23 24 23 23 23 21 20 19 18 18 20 21 20 20 21 21 20 19 18 17 17 17 18 18 18 17 17 17 17 17 16 14 14 15 15 15 15 15 15 14 13 14 14 14 16 16 12 10 8 4 3 5 5 4 6 7 10 11 12 12 13 13 12 12 12 12 11 11 12 13 13 14 14 15 17 18 20 21 24 27 29
19 21 23 23 24 24 23 22 22 20 18 17 16 17 19 19 18 19 20 19 18 16 16 15 14 14 15 16 17 17 17 18 18 18 18 17 18 18 18 18 17 17 16 15 15 16 17 17 17 18 15 12 10 7 7 7 7 6 5 3 4 6 7 8 10 11 12 12 11 11 10 10 11 11 12 13 13 14 15 17 18 19 22 24 25
20 22 24 24 24 23 22 20 19 17 16 15 14 16 17 16 16 18 18 16 14 13 13 13 12 13 13 14 15 16 16 16 16 16 17 18 18 18 17 16 16 16 16 15 14 15 16 17 17 18 17 15 12 9 8 7 6 7 7 5 4 5 5 5 6 7 9 10 12 13 13 12 13 13 13 14 14 14 16 17 18 19 20 20 20
20 22 24 25 23 22 21 18 15 14 13 12 13 16 16 15 15 16 15 13 11 10 10 10 11 12 12 13 13 13 14 14 13 13 15 16 16 16 15 14 14 13 13 14 14 15 16 17 18 17 16 15 13 10 10 9 6 6 7 6 6 6 6 7 6 6 7 8 9 11 13 14 14 15 15 16 16 17 17 18 19 20 20 21 21
20 21 22 24 23 21 20 17 14 13 11 10 12 15 15 14 14 13 12 11 10 9 9 9 10 11 11 12 12 11 11 12 13 12 12 13 14 14 14 14 13 12 12 13 15 15 16 17 17 17 16 15 12 10 10 11 10 9 8 6 5 5 5 6 7 7 8 8 8 9 10 11 12 13 14 14 15 16 17 17 18 19 19 19 19
18 20 22 24 24 21 20 17 14 13 12 11 12 14 15 15 13 10 9 9 10 10 9 10 10 10 10 10 11 10 10 10 10 10 10 12 13 13 14 14 13 13 13 14 15 15 16 16 16 16 15 14 12 10 10 10 11 10 9 8 6 5 5 5 6 7 8 8 9 9 9 9 10 11 11 11 12 12 13 15 17 18 18 18 18
18 20 22 23 24 22 21 18 15 14 13 12 12 13 14 14 12 9 8 8 8 9 10 11 11 11 10 10 9 10 10 9 8 8 9 10 11 12 13 13 13 12 12 13 14 14 15 16 16 16 15 14 12 11 11 11 11 11 10 10 8 7 6 6 7 9 9 9 9 9 9 9 9 9 10 10 11 11 12 13 15 17 18 19 19
18 20 21 22 22 21 21 19 17 14 13 12 11 10 11 11 9 8 8 7 7 8 9 10 11 11 11 10 9 9 10 8 7 6 7 8 9 10 11 11 11 11 11 12 13 14 15 15 15 15 15 14 13 13 13 13 13 12 11 10 9 8 8 8 9 10 10 10 10 9 9 8 8 7 7 8 9 10 11 12 13 14 16 17 18
19 19 20 20 19 19 18 18 16 14 12 12 11 10 9 7 6 6 6 6 6 7 8 9 10 10 10 10 10 10 9 8 7 5 5 6 7 8 9 10 9 9 10 11 12 13 13 14 14 14 14 14 14 15 16 15 15 14 13 11 10 10 9 10 10 11 11 10 10 10 9 9 9 9 10 10 11 12 13 13 13 14 15 15 16
19 19 19 18 18 18 17 17 16 14 12 11 11 11 9 7 6 6 5 5 6 7 7 8 8 8 9 9 9 9 8 8 8 6 5 6 7 8 8 8 8 8 9 10 11 12 11 12 12 12 12 14 16 18 18 18 17 16 15 14 13 13 13 13 13 13 12 12 11 12 13 14 14 14 14 14 15 15 15 15 15 15 15 15 15
19 19 18 18 18 18 17 17 16 15 13 13 13 11 10 9 9 8 6 7 8 8 8 8 8 8 8 8 8 8 7 7 7 6 5 6 7 7 7 7 7 7 8 9 10 10 10 10 11 10 11 14 16 17 17 17 17 16 16 15 15 15 15 15 15 15 14 14 14 14 15 16 17 17 17 18 19 21 21 20 19 19 18 17 16
19 19 18 17 17 17 17 17 16 14 13 13 12 11 9 9 9 8 8 9 9 9 9 9 9 9 8 8 8 7 7 6 6 6 5 5 6 7 7 7 7 7 7 8 9 9 9 9 9 9 11 13 14 14 14 15 15 15 15 15 15 15 15 15 15 15 15 17 17 17 16 17 17 17 17 18 20 22 22 22 23 24 22 20 19
21 20 19 17 16 16 16 16 15 13 11 10 10 9 8 7 6 6 7 8 9 10 10 11 10 10 9 8 8 8 7 7 7 7 6 5 5 5 5 5 6 6 7 8 8 8 8 9 9 8 9 11 12 13 13 14 14 14 13 13 13 13 14 14 15 15 15 17 18 18 18 18 19 17 16 17 19 19 18 18 21 22 20 19 19
Wind_Direction
202 199 199 199 198 192 188 189 189 191 194 196 196 197 198 196 196 200 201 200 200 200 203 204 197 192 194 197 197 194 193 197 201 200 202 201 197 195 196 197 195 185 177 177 176 172 176 184 185 182 184 177 149 133 119 110 95 77 48 22 5 357 359 360 354 353 359 2 348 326 322 310 303 309 319 324 326 325 325 325 327 328 329 334 336
190 190 193 193 192 189 186 185 185 187 191 194 197 197 198 198 198 201 202 202 202 201 202 204 201 196 194 196 195 192 193 197 196 193 195 198 196 194 196 197 196 195 193 189 185 184 187 190 197 201 198 195 190 174 137 132 98 80 54 28 12 359 358 0 356 355 6 10 353 332 344 355 346 336 336 326 315 313 315 319 323 326 330 335 334
180 182 184 187 187 185 184 185 187 190 190 193 196 197 197 198 200 202 203 202 202 203 202 203 204 202 201 199 194 192 196 198 197 195 195 195 194 194 197 199 200 202 200 197 198 201 204 203 209 215 217 215 214 237 215 172 164 149 43 22 21 13 6 6 7 0 355 358 352 340 350 1 14 5 354 348 318 296 297 310 317 323 330 331 330
182 181 180 182 182 181 183 185 187 188 189 191 194 195 196 198 200 201 203 204 204 204 205 207 206 202 203 200 192 193 197 198 200 201 200 199 197 198 200 202 205 206 203 203 207 212 215 213 216 217 217 219 219 240 261 241 228 221 346 17 24 22 12 8 11 357 347 351 356 353 316 348 22 342 343 360 11 326 288 297 305 311 323 324 323
181 181 179 178 179 183 186 186 185 186 189 192 193 195 197 198 199 200 202 205 206 206 208 211 209 202 195 183 182 185 189 192 194 196 199 201 200 199 199 202 206 208 210 214 216 217 215 213 214 214 213 214 212 228 257 244 230 236 325 32 29 20 8 4 9 359 349 355 2 346 341 358 223 325 332 350 12 13 344 316 308 309 317 316 318
181 180 179 179 182 186 187 186 185 188 193 194 194 196 197 197 197 197 201 204 207 209 212 213 210 206 198 181 177 177 180 189 194 195 197 199 199 200 201 203 207 211 216 220 222 221 215 212 212 215 216 209 208 224 245 231 223 235 332 42 30 18 13 13 15 12 3 4 4 349 330 290 274 323 338 327 359 24 38 25 16 354 335 319 316
183 181 180 182 183 183 186 187 189 193 195 194 192 194 197 197 195 195 200 204 205 209 213 212 209 209 207 196 189 186 186 191 196 198 199 200 200 202 207 211 211 212 215 218 222 221 215 214 213 215 216 208 209 222 235 223 218 224 247 51 39 28 26 29 29 25 30 31 25 21 0 318 281 313 358 308 341 10 20 26 29 16 356 336 331
183 183 182 183 184 185 188 192 194 196 194 191 191 193 197 197 195 195 199 203 204 207 210 207 204 203 203 203 203 201 198 195 195 197 200 202 204 205 211 216 212 210 212 216 223 225 224 224 220 217 213 208 210 216 222 217 214 218 214 69 47 36 30 32 33 30 37 40 39 47 49 50 75 76 27 3 231 303 354 13 17 14 15 357 341
184 183 184 186 187 189 193 195 197 196 193 192 192 192 196 196 196 196 198 201 202 202 202 200 201 201 200 204 207 208 210 206 201 201 203 206 209 209 211 212 209 208 209 212 219 224 227 230 227 219 212 208 211 217 221 217 214 215 211 224 283 36 30 23 21 22 33 39 40 47 58 66 76 66 20 10 133 221 332 335 354 6 17 14 358
190 185 186 188 190 192 194 196 197 196 195 195 192 191 194 195 196 197 198 200 200 199 197 197 200 203 206 209 211 212 214 213 210 209 210 212 213 215 213 208 205 205 204 203 208 217 223 229 229 221 215 212 215 220 221 217 215 213 214 231 242 237 13 357 357 7 23 38 41 43 48 50 50 33 10 9 359 280 303 296 332 349 353 1 11
193 191 190 190 191 192 192 194 196 196 195 193 192 192 193 195 196 197 198 199 199 199 198 199 202 207 212 216 218 219 218 217 217 216 217 218 218 219 216 209 204 203 203 200 202 212 222 230 233 224 220 218 218 218 213 212 215 215 219 229 230 227 260 286 302 332 0 27 40 42 42 41 38 24 9 7 354 301 287 309 328 341 341 351 4
187 190 192 187 185 186 189 193 194 193 193 193 193 194 194 196 197 197 197 197 198 200 201 202 206 210 215 219 223 225 223 223 222 221 220 220 220 221 218 214 210 204 202 203 207 215 222 229 231 226 221 220 217 213 207 210 218 219 224 231 229 233 252 260 265 280 308 351 33 41 39 38 35 24 12 11 6 350 312 310 331 351 350 352 0
184 182 183 179 178 182 187 190 190 191 195 195 195 194 195 197 197 197 197 198 199 201 202 205 209 213 216 219 224 227 228 229 227 225 223 223 223 221 220 218 213 207 204 206 207 212 222 225 225 225 222 222 217 213 213 217 221 224 232 238 236 244 261 263 261 264 276 291 341 32 31 31 29 19 11 13 13 10 358 332 346 2 351 352 3
178 178 177 180 183 185 187 188 190 194 197 197 196 196 195 196 198 199 200 200 202 204 206 208 212 215 216 219 225 230 232 231 229 228 226 225 225 224 224 223 219 214 210 208 206 210 220 221 222 226 225 223 219 218 222 224 226 231 239 243 243 254 264 261 262 265 267 272 275 297 359 10 13 10 10 12 12 13 11 0 2 9 2 357 3
161 172 179 185 189 189 188 190 192 195 196 197 197 197 197 197 200 201 202 203 204 205 208 210 212 215 216 219 224 231 235 232 228 229 229 228 228 228 229 229 230 228 221 215 211 214 219 218 220 225 225 223 221 223 227 226 228 234 241 245 246 254 257 254 260 266 262 257 255 250 260 308 342 354 358 5 11 14 16 16 13 16 16 354 353
154 171 179 186 190 192 193 193 195 196 195 196 197 199 200 200 201 203 205 206 206 207 208 210 212 213 215 218 223 227 232 230 227 227 229 231 233 233 235 237 238 242 238 227 221 222 226 226 225 225 224 225 226 228 227 224 228 235 241 244 245 248 250 250 257 263 255 243 241 242 244 259 297 333 338 345 4 11 11 9 6 14 26 354 339
151 171 178 183 186 190 195 196 196 196 196 197 198 201 203 202 203 204 206 207 208 210 211 212 212 213 214 218 222 224 226 228 227 227 228 231 235 239 243 244 244 246 245 239 235 234 236 235 234 231 228 228 229 232 231 227 230 235 239 243 245 246 248 250 256 258 254 247 244 245 243 248 267 306 323 327 344 359 2 359 354 1 11 349 322
138 146 171 186 185 188 193 195 196 198 199 200 201 203 205 206 207 206 207 208 210 211 212 214 214 214 215 218 221 222 224 227 228 227 229 234 239 244 247 247 246 245 244 243 243 244 245 243 241 237 234 231 230 233 235 236 237 237 240 244 245 245 248 251 257 261 261 261 258 256 252 249 253 270 297 308 313 335 349 354 354 348 333 310 256
138 139 172 192 190 190 191 192 196 198 201 202 201 202 205 208 211 211 210 212 211 212 213 216 218 218 219 220 222 223 224 227 228 228 232 238 243 247 248 247 247 245 243 243 245 249 250 247 246 245 240 235 233 235 238 242 244 244 245 248 249 250 251 254 260 264 266 266 264 263 261 257 255 256 263 271 284 304 315 326 334 333 327 303 264
139 159 171 188 201 199 194 192 194 196 201 202 199 201 205 209 212 212 213 213 213 214 215 217 220 222 223 225 225 226 227 228 229 229 232 238 243 247 247 246 247 245 243 244 246 249 250 249 252 253 250 244 241 242 244 246 248 249 251 253 255 255 255 257 260 263 264 263 262 264 267 266 262 255 257 264 270 284 297 302 305 305 307 297 275
124 154 139 89 93 201 195 191 192 195 197 198 198 200 204 207 211 212 213 214 215 216 218 220 221 223 225 227 228 228 229 230 231 231 232 235 240 245 247 246 247 247 245 245 247 249 251 253 255 258 258 256 254 253 254 253 252 252 254 258 259 257 257 257 259 259 259 257 260 266 270 272 269 263 262 268 269 274 286 295 295 291 290 288 283
123 107 92 84 71 79 146 172 182 189 192 194 197 199 202 206 209 212 215 217 218 218 219 221 222 224 226 229 231 231 231 233 233 233 234 234 236 241 246 247 247 247 247 249 251 252 255 258 259 261 262 263 265 265 264 261 257 256 257 260 262 260 258 258 259 259 258 256 258 264 268 271 272 267 264 268 275 277 281 290 296 291 286 283 283
127 115 109 113 114 112 120 140 162 176 182 187 192 196 200 203 205 210 216 220 222 222 222 222 222 225 227 228 231 233 234 236 237 237 236 235 236 238 243 247 247 248 249 251 254 255 257 260 263 265 264 265 268 270 268 264 261 261 262 264 265 265 262 260 261 262 263 262 260 262 266 270 272 269 264 266 273 279 282 286 294 296 290 286 286
136 130 135 142 139 137 136 133 138 149 160 171 183 191 195 199 205 212 218 222 225 225 226 225 225 226 227 228 230 232 234 236 238 239 237 236 236 237 240 245 248 249 251 255 258 258 257 258 261 265 266 264 265 266 266 264 262 262 264 266 267 268 267 265 264 266 268 268 267 266 267 271 275 273 270 270 272 277 280 281 284 289 289 286 288
133 135 144 145 138 141 149 148 137 132 141 156 170 181 188 198 208 213 216 220 223 226 227 228 228 228 227 228 230 231 233 236 239 241 240 238 237 237 239 242 246 250 253 257 260 261 262 260 259 261 263 263 263 264 266 265 265 264 265 267 268 269 270 270 270 271 272 272 272 271 272 274 276 275 274 276 279 282 284 282 280 281 283 284 286
116 122 128 130 135 139 136 127 115 111 124 145 158 167 180 195 205 208 210 214 219 224 227 228 229 229 229 230 231 231 232 235 239 243 245 244 243 242 242 243 246 250 253 257 261 264 266 266 264 263 264 265 266 267 268 268 268 267 266 267 268 269 270 271 272 273 274 275 274 274 277 278 277 277 277 278 282 286 289 287 282 280 281 284 286
98 115 122 122 124 119 112 111 110 111 129 148 150 155 171 188 197 197 200 208 214 218 221 224 227 228 230 231 231 231 232 234 238 242 246 249 250 250 249 249 249 250 252 255 259 263 266 268 269 269 269 270 270 270 271 271 270 269 268 267 268 268 269 269 269 271 272 274 275 276 277 278 278 279 280 281 283 285 287 287 285 285 286 289 290
92 103 109 109 105 103 112 127 135 141 156 156 141 145 159 168 173 181 197 209 212 212 208 211 224 232 234 233 230 227 227 227 230 233 238 245 250 252 253 253 253 253 253 254 258 262 265 268 273 275 275 274 273 271 271 271 271 272 270 269 269 269 270 269 268 268 270 272 274 276 277 278 278 279 281 283 284 285 286 286 286 288 290 293 295
95 82 79 89 91 93 104 119 133 147 156 138 122 130 131 117 106 129 204 218 218 217 207 200 221 238 238 238 236 231 230 227 225 225 225 232 243 250 251 251 252 254 255 257 261 265 269 273 277 280 279 277 274 272 271 271 271 272 271 271 270 270 270 271 270 270 271 272 273 274 275 277 278 280 282 283 283 283 284 285 287 289 290 293 295
101 82 73 81 85 85 89 98 114 130 128 110 103 105 105 100 95 100 169 223 224 226 196 188 224 243 244 246 245 237 239 238 233 231 229 227 232 248 253 248 246 249 251 253 256 259 265 273 279 282 282 280 278 276 274 273 272 272 272 271 271 270 270 270 272 273 274 275 275 275 276 278 278 279 280 281 281 282 281 281 284 287 288 290 291
110 98 84 76 81 87 87 87 96 103 102 98 96 95 97 95 89 93 111 148 157 121 104 119 169 237 248 252 250 240 247 249 242 239 238 234 237 254 262 253 242 240 242 243 246 247 251 259 271 278 281 280 279 278 277 277 275 273 272 271 271 271 271 270 270 271 273 276 277 279 280 281 281 281 281 281 282 281 281 280 280 281 282 284 285
106 112 107 95 85 86 87 86 89 94 94 94 94 92 89 86 84 88 93 99 101 94 91 92 91 87 110 202 215 208 216 229 231 234 240 247 254 261 262 255 245 238 235 233 235 238 241 247 257 270 278 280 280 279 279 279 278 276 273 271 270 271 271 271 272 272 274 276 277 279 281 282 283 284 284 284 284 284 284 283 283 282 281 279 279
73 89 103 101 94 89 89 89 89 91 93 94 94 92 88 87 87 88 86 87 89 90 90 89 85 83 86 90 100 114 120 128 150 181 206 225 241 250 252 251 247 242 238 236 234 234 240 251 256 266 278 284 285 284 282 280 279 278 276 272 270 270 270 271 273 274 275 276 277 278 280 282 285 286 286 286 286 288 289 289 288 288 286 284 281
90 79 86 93 96 95 92 91 91 92 93 94 93 93 93 92 89 87 86 86 87 88 87 87 86 86 85 86 90 93 92 89 88 90 102 119 151 218 235 241 245 247 245 243 242 241 245 255 260 265 273 279 286 295 295 289 282 278 277 274 271 270 269 269 271 273 274 276 278 278 280 282 286 287 287 287 288 289 291 293 293 292 292 293 291
114 105 96 97 100 97 93 92 94 95 95 93 91 93 94 92 90 87 84 82 81 79 76 76 77 77 77 79 82 86 87 85 82 82 86 89 91 102 177 220 236 251 255 254 253 250 249 251 255 263 271 274 275 282 299 305 296 284 278 276 273 270 269 270 270 272 273 274 276 278 279 281 285 286 288 288 289 291 293 294 295 295 296 298 297
128 123 116 110 106 101 98 97 97 98 97 95 95 95 93 90 88 87 83 81 79 74 71 71 70 68 70 72 72 73 75 77 78 82 89 92 91 84 77 78 92 159 270 282 283 275 269 266 266 271 279 285 283 278 281 294 297 287 276 273 274 273 274 276 276 277 277 277 278 278 278 280 283 285 288 289 290 292 293 293 295 296 297 299 299
126 123 119 115 111 108 107 107 104 101 100 99 98 96 91 86 83 81 79 78 76 72 69 67 65 64 64 65 67 66 66 70 78 84 89 98 104 96 84 75 77 82 72 25 341 321 318 324 333 317 287 297 334 330 266 268 275 278 275 271 270 272 275 278 282 285 286 285 284 283 282 282 283 285 289 291 292 292 292 291 293 294 296 297 295
122 120 116 114 115 114 114 113 108 105 105 104 102 98 92 85 79 76 74 72 70 71 71 67 64 64 63 62 63 63 64 68 73 74 74 83 93 90 82 77 78 77 71 59 50 43 36 33 32 22 360 15 49 65 228 262 269 271 274 273 270 271 272 276 280 284 286 287 287 288 289 288 288 290 293 294 293 291 289 289 290 291 292 291 287
122 122 119 116 116 115 114 113 109 106 107 106 103 99 92 84 80 77 73 68 65 67 69 69 67 66 65 62 60 59 60 63 64 65 68 75 82 81 77 75 75 73 67 58 49 46 46 48 43 32 23 28 35 28 351 0 348 299 282 275 269 269 270 273 278 280 280 281 282 285 290 292 292 294 293 290 287 284 282 283 285 287 286 285 285
121 122 121 119 118 115 110 107 106 106 107 107 103 96 88 82 80 77 70 63 63 65 69 71 72 71 69 64 59 57 57 57 58 60 65 73 80 80 76 72 69 69 67 60 51 48 52 57 56 50 44 34 14 339 326 349 359 350 344 319 281 277 277 279 284 285 284 284 283 285 291 293 291 289 286 284 283 280 278 279 282 284 284 286 291
124 125 122 118 115 112 106 102 102 105 105 104 102 94 86 81 77 70 64 58 58 62 66 69 69 69 68 63 60 59 57 56 56 58 63 69 74 74 71 66 64 65 68 67 64 63 65 67 67 65 61 53 37 11 350 345 339 336 345 352 350 353 347 327 314 304 298 294 291 291 293 294 293 291 289 288 285 284 282 280 281 284 286 290 293
124 124 123 117 111 107 103 99 98 100 97 98 99 92 85 80 74 67 62 57 54 56 59 62 63 64 63 61 59 59 60 59 55 56 62 64 64 64 63 61 60 61 64 65 64 63 65 65 63 62 59 54 53 47 34 32 24 359 355 355 346 348 354 352 345 335 325 315 305 299 295 294 294 293 291 289 286 284 283 282 285 288 290 290 290
125 123 124 120 112 105 102 98 96 95 93 95 97 92 84 78 72 66 62 57 53 49 49 53 56 57 59 60 59 57 59 59 56 53 57 59 55 51 50 49 50 51 54 56 55 53 55 55 53 50 46 44 49 52 42 35 33 25 20 16 357 345 348 348 344 340 335 329 318 309 303 299 299 298 295 292 288 285 283 285 290 295 298 298 296
128 126 126 122 115 109 104 102 99 96 93 92 93 91 85 78 71 66 61 55 49 45 45 47 48 50 54 57 59 59 60 62 59 51 48 49 45 41 42 42 42 45 50 53 52 48 46 45 41 39 39 40 44 45 37 30 29 28 26 27 24 15 5 358 353 349 345 337 327 319 313 306 303 302 301 299 297 296 295 295 298 302 304 306 307
132 130 128 124 119 116 111 106 102 98 94 91 89 89 83 75 71 68 62 53 46 43 43 44 43 43 46 49 54 59 61 66 70 60 47 41 37 36 40 42 42 47 53 53 48 43 39 37 35 34 35 37 37 34 30 26 24 23 24 26 27 26 24 19 12 6 2 354 343 331 322 314 307 302 298 296 298 303 306 307 307 307 306 307 308
136 133 130 126 122 119 115 110 104 100 96 89 84 81 76 70 67 68 66 58 48 44 43 44 41 38 38 40 45 51 53 60 75 78 60 46 42 42 43 42 45 53 56 52 46 39 34 31 31 32 35 38 37 33 29 24 21 20 21 22 23 24 24 19 14 10 5 358 351 346 341 336 329 326 324 324 325 326 325 322 320 316 312 311 311
142 138 135 131 126 122 120 116 109 102 97 88 80 76 72 66 61 62 62 57 53 52 50 46 42 35 30 30 33 37 41 47 59 77 79 66 63 62 53 48 53 56 53 48 44 38 34 32 31 32 38 45 46 42 36 31 27 26 26 26 26 25 21 17 16 14 10 4 2 5 8 8 8 10 11 8 4 360 354 347 342 338 332 327 323
147 145 143 138 133 131 129 125 118 112 105 96 89 84 80 77 74 70 68 68 69 69 62 52 44 35 26 23 24 25 29 35 43 58 80 77 68 63 56 53 56 54 47 43 40 37 38 39 36 37 46 53 53 48 43 39 35 34 33 32 29 26 21 18 18 16 14 14 15 16 18 17 17 17 16 12 9 5 1 356 352 350 345 340 336
160 156 151 145 141 141 137 129 124 120 113 106 101 97 90 85 82 79 80 81 79 73 65 57 50 43 36 28 22 19 22 30 33 43 65 73 65 57 51 47 49 46 39 34 33 36 42 44 44 50 58 59 55 47 40 36 32 30 30 28 25 24 22 20 18 16 16 21 25 25 22 19 16 13 9 5 0 356 353 350 347 347 347 345 343
171 160 156 152 147 144 138 130 127 124 117 111 107 104 98 92 85 80 75 73 70 64 62 60 56 52 48 41 35 32 33 37 37 38 50 62 62 54 43 36 38 37 31 29 33 42 47 45 49 60 65 60 52 41 33 29 27 25 24 22 19 17 16 16 15 13 16 23 27 27 24 19 15 11 5 0 356 352 350 346 342 343 346 346 345
174 165 161 157 151 148 142 137 137 133 125 119 116 114 110 102 92 82 72 66 61 56 57 59 57 54 52 50 51 52 51 52 54 54 52 51 49 43 31 25 27 24 20 26 38 48 50 49 52 61 61 50 40 31 25 23 22 23 23 20 15 11 8 8 5 4 12 21 24 23 20 15 11 8 4 359 355 352 349 345 342 342 343 344 344
Height
824 826 828 830 832 834 837 839 840 842 844 845 846 847 849 851 852 854 855 856 858 859 860 861 862 864 865 866 867 868 869 870 871 873 874 876 877 878 879 880 881 882 883 884 885 886 887 887 888 889 889 889 890 890 890 890 890 890 890 891 891 891 891 891 891 891 890 889 889 888 887 886 886 886 886 886 886 886 886 886 886 886 886 886 886
823 826 827 829 832 834 836 838 840 841 842 844 845 847 849 850 852 853 855 856 857 859 860 861 862 863 864 866 867 868 869 870 871 873 874 876 877 878 879 880 881 882 883 884 885 886 887 888 888 889 889 890 890 890 890 890 890 891 891 891 891 892 892 892 892 891 891 890 889 888 887 886 885 885 885 885 885 885 885 885 885 885 885 885 885
824 825 827 829 831 834 836 837 839 840 841 843 845 846 848 850 851 852 854 855 857 859 860 861 863 864 865 866 867 869 870 871 872 873 875 876 877 878 879 880 881 882 883 884 885 886 887 888 888 889 889 890 890 890 890 891 891 891 891 892 892 892 892 892 892 891 891 890 890 890 889 888 887 885 885 884 884 884 884 885 885 885 885 885 885
824 825 826 828 831 833 835 836 838 840 841 843 844 846 847 848 850 852 853 855 857 858 860 861 863 864 866 867 868 869 870 872 873 874 875 876 877 878 879 880 881 882 883 884 884 885 886 887 888 888 889 890 890 890 891 891 892 892 892 892 892 892 892 892 892 892 891 891 891 891 891 891 892 888 885 884 883 883 883 884 884 884 884 885 885
823 824 825 827 830 831 833 835 837 839 840 842 843 844 846 847 849 851 853 855 856 858 860 861 862 864 865 867 868 869 870 872 873 874 875 876 877 878 879 880 881 882 883 884 884 885 886 887 887 888 889 889 890 891 891 892 892 893 893 893 893 893 893 892 892 892 892 891 891 892 893 894 894 890 887 885 883 883 883 883 883 884 884 884 884
820 822 824 826 828 830 832 834 836 838 839 840 842 843 845 847 849 851 853 854 856 858 859 861 862 863 865 866 867 868 870 871 872 873 874 875 876 877 879 880 881 882 883 884 884 885 885 886 887 887 888 889 890 890 891 892 892 893 893 893 893 893 893 893 892 892 892 892 891 892 893 894 892 890 890 889 885 883 883 883 883 883 883 883 883
819 820 822 824 826 828 831 833 834 836 837 839 841 843 845 846 848 850 852 854 856 858 859 860 862 863 864 865 866 867 869 869 871 872 874 875 876 877 878 879 880 881 882 883 884 884 885 886 886 887 888 889 889 890 891 892 893 893 893 893 893 894 894 893 893 892 892 892 892 891 891 891 891 890 891 891 889 886 884 883 883 882 883 883 883
818 820 821 822 824 826 828 830 832 833 836 839 841 842 844 846 847 849 851 853 855 857 859 860 861 863 864 865 866 867 868 869 871 872 873 874 875 877 878 879 880 881 881 882 883 884 885 885 886 887 888 888 889 890 891 892 892 893 893 894 894 894 894 894 893 893 893 892 892 892 891 890 890 890 890 890 891 890 886 883 883 882 882 882 883
816 818 819 820 822 824 825 827 829 832 835 837 839 840 842 845 847 849 850 852 854 856 858 860 861 862 864 865 866 867 868 870 871 872 873 874 875 876 877 878 879 880 881 882 882 884 885 886 886 887 888 888 889 890 891 891 892 893 893 894 894 894 894 894 894 894 894 893 893 892 891 891 890 890 890 889 889 890 889 885 883 883 882 882 882
814 815 816 818 820 821 823 826 828 831 833 836 838 840 842 844 846 848 849 851 853 855 857 859 860 862 863 864 865 867 868 869 871 871 872 873 874 875 876 877 878 879 880 881 882 883 884 885 886 887 887 888 889 889 890 891 892 892 893 893 894 894 894 894 894 894 894 894 893 893 892 891 891 890 890 890 889 889 889 887 885 884 883 883 882
814 814 815 816 818 821 823 825 827 830 833 835 838 839 841 843 845 847 849 850 852 854 856 858 859 861 862 864 865 866 867 869 870 871 871 872 873 874 876 877 878 879 880 881 882 883 884 885 885 886 887 887 888 889 890 891 891 892 893 893 893 894 894 894 894 894 894 894 893 893 892 892 892 891 891 890 889 889 888 887 886 885 884 883 883
813 815 816 818 820 822 824 825 827 830 832 834 836 838 840 842 844 846 848 849 851 853 855 856 858 860 861 863 864 865 866 868 869 870 871 872 873 874 875 876 877 878 879 880 881 882 883 884 885 885 886 887 888 889 890 890 891 892 892 893 893 893 893 894 894 894 894 894 894 893 893 892 892 892 891 890 889 889 888 888 886 885 885 884 883
813 814 816 818 820 822 823 825 827 828 830 832 834 836 839 841 843 845 847 848 850 851 853 855 857 858 860 862 863 864 865 867 868 869 870 871 872 874 874 875 876 877 878 879 881 882 883 883 884 885 886 887 888 888 889 890 891 891 891 892 892 893 893 893 893 893 893 893 893 893 893 893 892 892 891 891 890 889 888 888 887 886 885 885 884
812 814 815 817 819 819 821 823 824 826 828 831 833 835 837 840 842 843 846 847 849 851 852 854 856 857 859 860 862 863 864 866 867 868 869 871 872 873 874 875 876 877 878 879 880 881 882 883 884 885 885 886 887 888 889 890 890 890 891 891 892 892 892 892 893 892 892 893 893 893 893 892 892 892 891 890 890 889 888 888 887 886 886 885 885
812 814 815 816 817 818 819 821 822 824 827 829 831 834 836 838 840 842 844 846 848 849 851 852 854 856 858 859 861 862 863 865 866 867 869 870 871 872 873 874 875 876 877 878 880 881 881 882 883 884 885 886 887 887 888 889 889 890 890 890 891 891 891 892 892 892 892 892 892 892 892 892 892 891 891 890 890 889 889 888 888 887 887 887 885
811 814 815 816 817 818 819 820 822 824 826 829 830 832 834 837 839 841 842 844 846 848 849 850 852 854 856 858 860 861 863 864 865 867 868 869 870 871 872 874 875 876 877 878 879 880 881 882 882 883 884 885 886 887 887 888 888 889 889 890 890 890 890 891 891 891 891 891 891 891 891 891 891 890 890 889 889 889 888 888 888 888 889 890 888
811 812 813 814 815 817 819 820 822 824 826 828 829 831 833 835 837 839 841 843 844 846 848 849 851 853 855 857 859 861 862 863 865 866 867 868 869 870 871 873 874 875 876 877 878 879 880 881 882 883 883 884 885 886 887 887 888 888 888 889 889 889 890 890 890 890 890 890 890 890 890 890 890 889 889 889 888 888 888 888 888 887 888 889 890
811 811 812 813 813 815 817 819 821 823 825 827 828 830 832 834 836 838 840 841 843 845 846 848 850 852 854 856 858 860 861 863 864 865 867 868 869 869 870 871 872 874 875 876 878 879 880 881 881 882 883 884 884 885 886 887 887 888 888 888 889 889 889 889 889 889 889 889 889 889 889 889 889 889 888 888 888 888 888 887 888 887 887 887 888
812 812 812 813 813 814 815 818 820 822 825 826 828 831 832 834 835 836 839 840 842 844 845 847 849 851 853 855 857 859 860 862 863 864 866 866 868 869 869 870 871 873 874 875 877 877 879 880 881 882 882 883 884 885 886 886 886 887 887 888 888 888 888 888 888 888 888 888 888 888 888 888 888 888 888 888 887 887 887 887 887 887 887 887 886
813 812 813 813 814 814 814 817 819 821 824 825 828 830 832 834 835 836 838 840 841 843 845 846 848 850 852 853 856 857 859 861 862 863 864 865 866 867 868 870 870 872 873 874 875 876 878 879 880 881 882 883 884 884 885 885 886 886 886 887 887 887 887 887 887 887 887 887 887 887 887 887 887 887 887 887 886 886 886 886 886 886 886 886 885
813 813 814 814 815 816 815 817 818 820 822 824 827 829 831 833 834 836 837 839 840 842 843 845 847 849 851 852 854 855 857 859 860 861 862 863 865 866 867 869 870 871 872 873 874 875 876 878 879 880 881 882 883 884 884 885 885 885 886 886 886 886 886 886 886 886 885 886 885 885 886 886 886 886 886 886 886 886 886 885 885 885 885 885 884
813 813 815 816 817 817 817 817 818 819 821 823 826 828 830 832 833 835 837 838 840 842 843 845 846 848 849 850 852 854 855 857 858 859 861 862 864 865 866 868 869 870 871 872 873 873 875 876 877 878 880 880 881 882 883 884 884 884 885 885 885 885 885 885 885 884 884 885 884 884 884 884 885 885 884 885 885 885 885 885 885 884 884 884 883
810 812 813 814 816 818 818 818 818 819 821 823 826 828 830 831 833 835 836 838 840 841 843 844 845 846 848 849 852 853 855 856 857 858 860 861 862 864 865 867 868 869 870 871 872 872 873 875 876 877 878 879 880 881 882 882 883 883 883 884 884 884 884 884 883 883 883 884 884 883 883 883 884 883 883 884 884 884 884 884 883 883 883 883 882
809 809 810 811 813 816 818 819 819 820 821 823 825 827 828 830 832 833 835 837 839 840 842 843 844 845 847 848 850 852 854 855 856 858 859 860 861 863 864 865 866 868 869 870 871 871 872 873 874 875 876 877 878 879 880 881 881 882 882 882 883 883 883 882 882 882 882 883 882 882 882 883 883 882 882 883 883 883 883 882 882 882 882 881 881
810 809 809 810 812 815 817 819 820 821 822 823 824 826 827 829 830 831 833 835 837 839 840 841 842 844 845 847 848 850 852 853 855 856 858 859 860 861 863 864 865 866 867 868 869 870 871 871 872 873 874 875 876 877 878 879 879 880 880 880 881 881 881 881 881 881 881 881 881 881 881 881 882 881 881 881 882 882 881 881 881 880 880 880 880
811 811 811 811 812 814 817 820 823 824 824 824 824 825 826 827 829 831 833 835 836 838 839 840 841 843 844 846 847 849 851 852 854 855 857 858 860 861 861 862 863 864 865 866 867 868 869 869 870 871 872 873 874 875 876 876 877 878 878 879 879 879 879 879 879 879 879 880 879 879 880 880 880 880 880 880 880 880 880 880 879 879 879 879 878
813 812 812 813 814 815 817 821 825 826 826 826 826 826 826 827 828 830 832 834 835 837 839 840 842 842 844 845 847 848 850 851 853 855 856 858 859 860 860 861 861 862 863 864 865 866 867 867 868 869 870 871 872 873 874 874 875 876 876 877 877 877 877 877 877 877 877 878 878 878 878 878 878 878 878 879 879 879 879 879 878 878 878 878 877
814 814 814 814 816 817 819 822 824 825 825 826 827 827 828 829 830 831 832 833 835 837 839 841 843 844 845 845 847 848 850 851 852 853 854 856 857 859 859 860 860 860 861 861 862 863 864 865 866 867 867 869 870 870 871 872 873 874 874 875 875 875 875 875 875 875 876 876 876 876 876 877 877 877 877 877 877 877 877 877 877 877 877 876 876
816 816 816 816 817 818 820 822 824 825 826 827 828 828 830 831 831 832 833 833 835 837 839 841 843 844 845 845 846 848 850 850 849 849 850 852 855 857 858 858 859 859 859 860 860 861 862 863 864 865 865 866 867 868 869 870 871 872 872 873 873 873 873 874 874 874 874 874 874 874 874 874 875 875 875 875 875 876 876 875 875 875 875 875 874
817 817 817 817 818 819 821 823 825 825 826 828 829 829 830 831 832 834 835 834 834 836 838 840 842 842 842 844 845 848 850 849 848 847 847 849 851 854 857 858 857 858 858 858 859 859 860 861 862 863 864 864 865 866 867 868 869 870 870 871 871 871 872 872 872 872 872 872 872 872 872 872 872 873 873 873 873 874 874 873 873 873 873 873 873
818 818 820 820 820 820 822 824 825 825 826 827 828 830 831 832 834 835 835 833 833 835 838 840 841 840 840 843 844 846 847 847 847 847 847 848 849 852 857 858 856 856 856 856 856 857 857 858 860 861 862 862 863 863 864 866 866 867 868 869 869 869 869 870 870 870 870 869 869 870 870 870 870 870 870 870 871 871 871 871 871 871 871 871 871
820 819 821 823 824 823 824 825 826 826 827 829 829 831 832 833 834 834 834 833 833 834 836 838 839 839 839 841 843 844 845 846 846 846 846 847 847 850 855 857 855 854 854 854 854 854 855 855 856 858 859 860 861 862 862 864 864 865 866 867 867 867 867 867 867 867 867 867 867 867 867 867 867 867 868 868 868 868 868 868 869 869 869 869 869
823 822 822 824 826 827 827 827 828 828 829 831 832 833 834 835 835 834 835 835 835 836 838 839 840 841 841 842 843 844 845 846 845 844 845 845 845 848 853 855 853 852 852 852 852 852 852 853 854 855 856 857 859 860 861 862 863 863 864 864 865 865 865 865 865 865 865 865 865 865 865 865 865 865 865 865 865 865 865 865 866 866 866 866 866
826 825 824 824 827 828 829 830 830 830 831 833 834 835 836 837 838 838 839 839 839 840 841 841 842 842 842 843 843 844 844 845 845 844 844 844 846 849 852 853 851 850 850 850 850 850 850 851 851 852 853 854 856 858 860 861 862 862 862 862 862 862 862 862 862 863 863 863 863 863 862 862 862 862 863 863 863 863 863 863 863 862 862 862 862
826 827 826 827 828 829 830 832 833 834 835 837 838 838 838 838 840 841 842 842 842 842 842 843 843 843 843 843 843 843 843 844 844 845 845 846 848 851 852 851 850 849 849 848 848 848 848 848 848 849 851 852 854 856 858 861 862 861 860 860 859 859 859 859 860 860 860 860 860 861 860 860 860 860 860 860 861 861 861 860 860 859 858 858 858
826 827 827 829 830 830 831 833 836 836 837 839 840 840 840 840 842 843 843 843 843 843 843 844 845 845 845 844 844 844 843 842 844 846 847 848 850 852 851 850 849 848 848 847 847 847 847 846 846 847 848 851 853 854 856 860 862 861 859 858 858 857 857 857 857 857 858 858 858 858 858 858 857 857 857 858 859 859 858 857 856 856 855 854 854
826 828 829 830 831 832 833 836 837 838 839 840 841 841 841 842 843 844 845 844 844 844 844 845 845 846 846 844 844 845 844 845 847 849 849 849 850 850 850 849 849 848 847 847 847 847 847 846 846 846 847 850 853 855 856 859 861 860 858 857 856 855 855 854 854 855 855 855 856 856 855 855 855 854 855 856 856 856 856 855 854 853 852 851 850
828 830 831 832 833 834 836 838 839 840 842 842 842 842 842 843 845 845 845 845 846 846 846 846 846 847 847 847 846 847 847 848 849 849 849 848 848 848 848 848 848 847 846 845 844 844 844 844 844 846 848 852 854 856 857 858 858 857 857 856 855 854 853 852 852 852 852 853 853 853 853 853 852 852 852 853 854 853 852 852 851 850 849 848 847
831 832 833 835 836 837 838 839 841 843 844 844 844 844 844 846 847 847 847 847 848 848 849 849 849 850 850 850 849 849 849 849 848 848 848 847 847 847 847 847 846 845 844 844 844 843 842 843 845 848 852 855 856 857 858 858 857 856 855 854 853 852 851 850 850 850 850 850 850 850 850 850 850 850 850 850 850 850 849 849 848 848 847 845 845
833 834 835 836 837 838 839 841 842 844 845 845 845 845 846 848 848 849 849 850 850 851 851 851 852 851 851 852 851 850 849 848 847 847 847 847 847 847 846 846 846 845 844 844 846 847 847 847 849 852 855 857 858 857 857 857 857 856 854 853 852 851 850 849 848 848 848 848 848 848 848 848 847 847 847 847 847 847 846 846 846 845 844 843 843
835 836 836 837 838 839 840 842 843 844 845 845 845 846 847 848 849 849 851 852 852 852 852 852 852 852 852 852 852 851 850 849 849 848 847 847 847 848 848 848 848 848 848 849 851 853 852 852 852 854 856 858 859 858 857 857 857 856 854 853 852 851 849 848 847 847 846 846 846 846 846 846 845 845 845 844 844 844 844 843 843 843 842 842 841
836 837 837 838 839 840 841 842 843 844 844 845 845 846 847 848 848 850 851 852 853 853 853 853 853 853 853 852 852 852 852 852 851 851 850 850 850 850 851 851 851 852 852 853 855 855 854 853 853 854 856 858 860 860 859 857 856 855 853 852 851 850 849 848 847 846 845 845 844 844 844 843 843 843 843 842 842 842 841 841 841 840 840 839 839
835 837 838 838 839 841 842 843 844 844 845 846 846 846 848 848 848 850 851 852 852 853 853 853 853 853 853 853 853 853 853 853 853 853 852 852 852 853 853 853 853 853 853 854 854 853 853 853 854 855 857 859 860 859 858 857 855 854 852 851 849 848 847 846 846 845 844 844 843 843 842 842 841 841 840 840 840 839 839 838 838 838 837 837 836
836 838 838 838 840 842 843 844 845 845 846 847 847 847 848 849 849 850 851 851 851 852 852 853 853 853 854 854 854 853 853 853 853 853 854 854 854 854 854 854 854 854 854 854 854 854 855 855 856 858 858 859 859 858 857 856 854 853 851 849 848 847 845 845 844 844 843 843 842 841 841 840 839 839 838 838 837 837 837 836 836 835 835 834 834
838 839 839 839 840 842 844 845 846 847 847 847 848 848 849 850 851 851 851 851 851 851 851 851 852 852 853 853 854 854 854 854 854 854 854 854 854 854 854 855 855 855 855 855 856 856 856 857 857 858 858 857 857 856 855 854 853 852 850 848 847 846 845 844 844 843 843 842 841 840 839 838 837 837 836 835 835 835 834 834 834 833 832 832 831
840 839 839 840 840 842 844 845 846 847 847 847 848 849 849 850 851 851 852 852 852 851 851 851 851 851 852 852 853 853 854 854 855 855 855 855 855 855 855 855 855 855 856 856 857 857 857 857 857 857 857 856 855 854 853 852 851 850 849 848 847 845 845 844 843 843 842 841 840 839 838 837 836 835 834 833 833 832 832 832 831 831 830 829 828
841 840 840 841 840 841 843 844 846 847 847 847 848 849 849 850 851 851 852 852 852 852 852 852 852 852 852 852 852 853 853 854 854 855 855 856 856 856 856 856 856 856 857 857 858 858 858 857 857 857 856 856 855 854 852 851 850 849 848 847 846 845 844 844 843 842 841 840 839 838 837 836 835 834 833 832 832 831 831 830 829 829 828 827 826
842 841 841 841 840 841 842 843 845 846 846 847 848 848 850 850 850 851 851 851 852 852 852 852 852 852 852 852 852 852 853 853 853 854 854 855 856 856 856 856 857 857 857 858 858 858 857 857 857 856 856 855 854 853 852 851 850 849 848 847 846 845 845 844 843 842 841 840 839 838 837 836 835 834 833 832 832 831 831 830 829 828 826 825 824
843 842 841 840 840 841 842 843 844 845 846 846 847 848 849 850 850 851 851 851 852 852 852 852 852 852 852 852 852 852 852 852 853 853 854 855 855 856 856 856 857 857 857 857 857 857 857 857 856 856 856 855 854 854 853 852 851 849 848 847 846 845 845 844 843 843 841 840 839 839 838 837 836 835 834 833 832 832 831 830 828 827 825 824 823
843 842 840 840 840 841 842 843 844 844 845 845 846 848 849 849 850 851 851 851 852 852 852 852 852 853 853 853 853 853 853 853 853 853 854 854 855 855 856 856 856 857 857 857 857 856 856 856 856 855 855 855 854 854 853 852 851 850 849 848 847 846 845 844 844 843 841 840 839 839 838 838 837 836 835 834 833 832 831 829 828 826 825 823 822
841 840 839 839 840 840 841 842 843 844 844 844 845 847 848 849 850 850 850 851 851 851 852 852 852 853 853 853 853 853 853 853 853 853 854 854 854 855 855 855 856 856 856 856 856 855 855 855 855 855 855 854 854 854 853 852 852 850 849 848 847 846 845 844 843 842 841 840 839 839 838 837 837 836 835 834 833 832 830 829 827 825 824 823 822